Location: Unspecified
(43.8044°N, 11.0278°E)
Time: 21:08:21
(UTC+02:00)

Cosmos 1674 - Visible Passes

Search period start: 22 May 2015 00:00
Search period end: 01 June 2015 00:00
Orbit: 507 x 532 km, 82.5° (Epoch: 22 May)

Date Brightness Start Highest point End Pass type
(mag) Time Alt. Az. Time Alt. Az. Time Alt. Az.
22 May 5.0 01:54:58 16° E 01:55:03 16° E 01:57:36 10° NE visible
22 May 3.5 03:30:03 34° W 03:30:36 36° WNW 03:34:16 10° N visible
23 May 5.2 01:41:19 14° E 01:41:19 14° E 01:43:27 10° NE visible
23 May 3.3 03:16:24 41° W 03:16:46 42° WNW 03:20:32 10° N visible
24 May 5.3 01:27:39 12° E 01:27:39 12° E 01:29:09 10° ENE visible
24 May 3.0 03:02:44 50° W 03:02:56 50° WNW 03:06:46 10° N visible
25 May 5.5 01:13:58 10° E 01:13:58 10° E 01:14:20 10° ENE visible
25 May 2.9 02:49:03 60° W 02:49:05 60° W 02:52:59 10° N visible
26 May 2.7 02:35:21 71° WNW 02:35:21 71° WNW 02:39:11 10° N visible
27 May 2.7 02:21:37 78° NNW 02:21:37 78° NNW 02:25:21 10° N visible
28 May 2.9 02:07:53 73° NE 02:07:53 73° NE 02:11:31 10° N visible
29 May 3.0 01:54:07 63° NE 01:54:07 63° NE 01:57:38 10° NNE visible
30 May 3.3 01:40:20 53° ENE 01:40:20 53° ENE 01:43:45 10° NNE visible
30 May 5.2 03:15:25 11° WNW 03:16:10 11° WNW 03:17:24 10° NW visible
31 May 3.5 01:26:33 45° ENE 01:26:33 45° ENE 01:29:50 10° NNE visible
31 May 5.0 03:01:37 13° WNW 03:02:13 13° WNW 03:04:04 10° NW visible
